SV2MJJ Weather Reports


time (UTC)temp
F
wind
direction
speed
knots
gust
knots
rain 1hr
in
rain 24hr
in
rain mn
in
humidity
%
barometer
mb
20260506132259 80 118 2.6 13.9 0.00 0.00 0.00 40 1008.9
20260506131908 80 103 2.6 13.9 0.00 0.00 0.00 40 1009.0
20260506131706 80 351 2.6 13.9 0.00 0.00 0.00 40 1009.0
20260506131539 80 86 2.6 13.9 0.00 0.00 0.00 41 1009.0
20260506131523 80 5 2.6 13.9 0.00 0.00 0.00 41 1009.1
20260506131318 80 1 2.6 13.9 0.00 0.00 0.00 41 1009.0
20260506131221 80 6 3.5 10.4 0.00 0.00 0.00 42 1009.1
20260506131201 80 18 3.5 10.4 0.00 0.00 0.00 42 1009.1
20260506130706 80 69 3.5 11.3 0.00 0.00 0.00 40 1009.1
20260506130532 80 322 3.5 11.3 0.00 0.00 0.00 40 1009.1
20260506130511 80 20 3.5 11.3 0.00 0.00 0.00 40 1009.0
20260506130307 81 22 2.6 11.3 0.00 0.00 0.00 39 1009.1
20260506130150 81 56 1.7 11.3 0.00 0.00 0.00 40 1009.1
20260506130131 81 32 1.7 11.3 0.00 0.00 0.00 40 1009.1
20260506130052 81 10 1.7 11.3 0.00 0.00 0.00 40 1009.1
20260506125947 81 306 1.7 9.6 0.00 0.00 0.00 40 1009.2
20260506125644 81 1 0.9 7.0 0.00 0.00 0.00 40 1009.3
20260506125108 81 16 1.7 7.8 0.00 0.00 0.00 41 1009.3
20260506125029 81 64 1.7 7.8 0.00 0.00 0.00 41 1009.3
20260506124907 81 251 1.7 7.8 0.00 0.00 0.00 41 1009.3
20260506124724 81 344 0.9 7.8 0.00 0.00 0.00 41 1009.4
20260506124639 81 24 0.9 7.8 0.00 0.00 0.00 41 1009.4
20260506124623 81 49 0.9 7.8 0.00 0.00 0.00 41 1009.4
20260506124528 81 7 0.9 7.0 0.00 0.00 0.00 41 1009.4
20260506124206 81 274 0.9 7.0 0.00 0.00 0.00 41 1009.4
20260506124127 81 340 0.0 7.0 0.00 0.00 0.00 40 1009.4
20260506124031 81 351 0.0 5.2 0.00 0.00 0.00 40 1009.5
20260506123412 80 32 0.9 3.5 0.00 0.00 0.00 41 1009.5
20260506123029 80 38 0.9 7.0 0.00 0.00 0.00 41 1009.6
20260506122909 80 71 0.9 7.0 0.00 0.00 0.00 41 1009.6
20260506122705 80 80 0.9 7.0 0.00 0.00 0.00 41 1009.7
20260506122557 80 84 0.9 7.0 0.00 0.00 0.00 42 1009.7
20260506122538 80 17 0.9 7.0 0.00 0.00 0.00 42 1009.7
20260506122409 80 88 0.9 7.0 0.00 0.00 0.00 41 1009.7
20260506122030 80 337 0.9 9.6 0.00 0.00 0.00 41 1009.7
20260506121925 80 80 0.9 9.6 0.00 0.00 0.00 41 1010.0
20260506121824 80 47 0.9 9.6 0.00 0.00 0.00 41 1010.0
20260506121503 80 13 0.9 9.6 0.00 0.00 0.00 41 1009.8
20260506121302 81 10 0.9 9.6 0.00 0.00 0.00 41 1009.7
20260506121103 80 90 0.0 3.5 0.00 0.00 0.00 42 1009.7
20260506121030 80 98 0.0 3.5 0.00 0.00 0.00 42 1009.7
20260506120901 80 106 0.0 3.5 0.00 0.00 0.00 43 1009.8
20260506120751 80 26 0.0 3.5 0.00 0.00 0.00 44 1009.8
20260506120709 80 78 0.9 4.3 0.00 0.00 0.00 44 1009.8
20260506120650 80 11 0.0 4.3 0.00 0.00 0.00 44 1010.0
20260506120559 80 107 0.0 4.3 0.00 0.00 0.00 45 1009.8
20260506115858 80 171 0.0 4.3 0.00 0.00 0.00 45 1009.8
20260506115655 79 22 0.0 4.3 0.00 0.00 0.00 45 1010.0
20260506115530 79 26 0.0 4.3 0.00 0.00 0.00 46 1010.2
20260506115456 79 200 0.0 4.3 0.00 0.00 0.00 46 1010.0
20260506115253 79 125 0.0 4.3 0.00 0.00 0.00 46 1010.2
20260506115051 78 120 0.9 6.1 0.00 0.00 0.00 47 1010.2
20260506115030 78 49 0.9 7.0 0.00 0.00 0.00 46 1010.2
20260506114850 78 34 0.9 8.7 0.00 0.00 0.00 46 1010.3
20260506114652 78 319 0.9 8.7 0.00 0.00 0.00 46 1010.4
20260506114530 78 319 0.9 8.7 0.00 0.00 0.00 46 1010.4
20260506114452 78 318 0.9 8.7 0.00 0.00 0.00 46 1010.3
20260506114243 78 327 0.9 8.7 0.00 0.00 0.00 46 1010.4
20260506114044 79 296 0.9 8.7 0.00 0.00 0.00 45 1010.4
20260506114032 79 282 0.9 8.7 0.00 0.00 0.00 45 1010.4
20260506113843 79 301 0.9 4.3 0.00 0.00 0.00 46 1010.5
20260506113643 78 107 0.9 4.3 0.00 0.00 0.00 47 1010.4
20260506113529 78 107 0.9 4.3 0.00 0.00 0.00 46 1010.4
20260506113441 78 36 0.9 7.0 0.00 0.00 0.00 46 1010.4
20260506113245 78 7 0.9 7.0 0.00 0.00 0.00 46 1010.4
20260506113043 78 346 0.9 7.0 0.00 0.00 0.00 46 1010.4
20260506113030 78 338 0.9 7.0 0.00 0.00 0.00 46 1010.4
20260506112916 78 351 0.9 7.0 0.00 0.00 0.00 46 1010.4
20260506112821 78 356 0.9 7.0 0.00 0.00 0.00 46 1010.6
20260506112506 78 19 0.9 4.3 0.00 0.00 0.00 46 1010.5
20260506112411 78 189 0.9 6.1 0.00 0.00 0.00 45 1010.5
20260506112033 78 22 0.9 6.1 0.00 0.00 0.00 45 1010.6
20260506111839 78 85 0.9 6.1 0.00 0.00 0.00 45 1010.6
20260506111740 78 15 0.9 6.1 0.00 0.00 0.00 46 1010.6
20260506111710 78 15 0.9 6.1 0.00 0.00 0.00 45 1010.6
20260506111235 78 20 0.0 5.2 0.00 0.00 0.00 46 1010.6
20260506111109 78 110 0.0 5.2 0.00 0.00 0.00 46 1010.7
20260506110958 78 92 0.0 5.2 0.00 0.00 0.00 46 1010.6
20260506110620 78 198 0.0 1.7 0.00 0.00 0.00 45 1010.6
20260506110552 78 203 0.0 1.7 0.00 0.00 0.00 46 1010.7
20260506110503 78 173 0.0 5.2 0.00 0.00 0.00 46 1010.7
20260506110145 77 29 0.0 5.2 0.00 0.00 0.00 46 1010.8
20260506110042 77 20 0.0 5.2 0.00 0.00 0.00 47 1010.8
20260506105946 77 63 0.0 5.2 0.00 0.00 0.00 46 1010.7
20260506105307 77 108 0.0 0.0 0.00 0.00 0.00 46 1010.7
20260506105203 77 92 0.0 0.0 0.00 0.00 0.00 45 1010.9
20260506104630 78 190 0.0 3.5 0.00 0.00 0.00 45 1010.9
20260506104514 78 49 0.0 3.5 0.00 0.00 0.00 45 1010.9
20260506104431 78 49 0.0 3.5 0.00 0.00 0.00 45 1010.9
20260506104332 78 49 0.0 3.5 0.00 0.00 0.00 45 1011.0
20260506104013 77 45 0.0 3.5 0.00 0.00 0.00 45 1011.0
20260506103829 77 86 0.0 3.5 0.00 0.00 0.00 45 1010.9
20260506103727 77 25 0.0 1.7 0.00 0.00 0.00 45 1011.0
20260506103655 77 320 0.0 0.9 0.00 0.00 0.00 45 1011.0
20260506103250 77 35 0.0 7.8 0.00 0.00 0.00 45 1011.0
20260506103142 77 56 0.0 7.8 0.00 0.00 0.00 45 1011.0
20260506103055 77 74 0.0 7.8 0.00 0.00 0.00 45 1011.0
20260506102415 77 54 0.0 7.8 0.00 0.00 0.00 45 1011.1
20260506102253 77 164 0.0 0.9 0.00 0.00 0.00 46 1011.0
20260506102200 77 98 0.0 0.9 0.00 0.00 0.00 46 1011.0
20260506102151 77 88 0.0 0.9 0.00 0.00 0.00 46 1011.0
20260506101619 76 84 0.0 0.0 0.00 0.00 0.00 46 1011.1
20260506101539 76 63 0.0 0.0 0.00 0.00 0.00 46 1011.1
20260506101514 76 142 0.0 0.0 0.00 0.00 0.00 46 1011.1
20260506101423 76 293 0.0 0.0 0.00 0.00 0.00 46 1011.1
20260506101331 76 300 0.0 0.0 0.00 0.00 0.00 45 1011.1
20260506100613 76 34 0.0 0.0 0.00 0.00 0.00 45 1011.2
20260506100541 76 34 0.0 0.0 0.00 0.00 0.00 45 1011.2
20260506100514 76 34 0.0 1.7 0.00 0.00 0.00 45 1011.2
20260506100013 76 32 0.0 1.7 0.00 0.00 0.00 46 1011.2
20260506095910 76 20 0.0 1.7 0.00 0.00 0.00 46 1011.2
20260506095503 76 55 0.0 1.7 0.00 0.00 0.00 47 1011.2
20260506095418 76 103 0.0 0.9 0.00 0.00 0.00 47 1011.3
20260506095324 76 34 0.0 3.5 0.00 0.00 0.00 47 1011.3
20260506095226 75 32 0.0 3.5 0.00 0.00 0.00 47 1011.2
20260506094820 75 91 0.0 3.5 0.00 0.00 0.00 47 1011.3
20260506094721 75 76 0.0 3.5 0.00 0.00 0.00 48 1011.2
20260506094651 75 76 0.0 3.5 0.00 0.00 0.00 47 1011.3
20260506094628 75 76 0.9 4.3 0.00 0.00 0.00 48 1011.3
20260506094533 75 99 0.9 4.3 0.00 0.00 0.00 48 1011.3
20260506094229 74 80 0.9 4.3 0.00 0.00 0.00 48 1011.3
20260506093829 75 155 0.9 4.3 0.00 0.00 0.00 48 1011.3
20260506093753 75 152 0.9 4.3 0.00 0.00 0.00 47 1011.3
20260506093112 75 117 0.0 1.7 0.00 0.00 0.00 47 1011.4
20260506092607 75 49 0.0 0.9 0.00 0.00 0.00 47 1011.4
20260506092501 75 47 0.0 0.9 0.00 0.00 0.00 47 1011.4
20260506092416 75 67 0.0 0.9 0.00 0.00 0.00 47 1011.4
20260506092321 75 68 0.0 1.7 0.00 0.00 0.00 47 1011.4
20260506092221 75 115 0.0 1.7 0.00 0.00 0.00 47 1011.4
20260506091806 74 113 0.0 1.7 0.00 0.00 0.00 47 1011.4
20260506091610 74 138 0.0 1.7 0.00 0.00 0.00 48 1011.5
20260506091534 74 23 0.0 1.7 0.00 0.00 0.00 48 1011.5
20260506091507 74 20 0.0 1.7 0.00 0.00 0.00 48 1011.5
20260506091006 74 91 0.0 0.9 0.00 0.00 0.00 48 1011.5
20260506090808 74 61 0.0 0.0 0.00 0.00 0.00 48 1011.4
20260506090609 74 17 0.0 0.0 0.00 0.00 0.00 48 1011.4
20260506090536 74 1 0.0 0.0 0.00 0.00 0.00 48 1011.4
20260506090508 74 40 0.0 0.0 0.00 0.00 0.00 48 1011.4
20260506090007 73 15 0.0 0.0 0.00 0.00 0.00 48 1011.4
20260506085806 73 15 0.0 0.0 0.00 0.00 0.00 48 1011.4
20260506085606 73 15 0.0 0.0 0.00 0.00 0.00 49 1011.5
20260506085512 73 15 0.0 0.9 0.00 0.00 0.00 48 1011.4
20260506085447 73 9 0.0 0.9 0.00 0.00 0.00 49 1011.4
20260506085358 73 34 0.0 0.9 0.00 0.00 0.00 49 1011.4
20260506085256 73 34 0.0 0.9 0.00 0.00 0.00 49 1011.4
20260506084943 73 35 0.0 0.9 0.00 0.00 0.00 49 1011.4
20260506084503 73 59 0.0 0.9 0.00 0.00 0.00 49 1011.5
20260506084413 73 30 0.0 0.9 0.00 0.00 0.00 49 1011.4
20260506084318 72 35 0.0 2.6 0.00 0.00 0.00 49 1011.5
20260506084221 72 134 0.0 3.5 0.00 0.00 0.00 50 1011.5
20260506083813 72 134 0.0 3.5 0.00 0.00 0.00 50 1011.5
20260506083714 72 94 0.0 3.5 0.00 0.00 0.00 49 1011.5
20260506083643 72 113 0.0 3.5 0.00 0.00 0.00 50 1011.5
20260506083207 72 129 0.0 3.5 0.00 0.00 0.00 51 1011.4
20260506083009 72 109 0.0 2.6 0.00 0.00 0.00 51 1011.5
20260506082906 72 103 0.0 2.6 0.00 0.00 0.00 51 1011.5
20260506082817 71 6 0.0 2.6 0.00 0.00 0.00 51 1011.5
20260506082509 71 67 0.0 4.3 0.00 0.00 0.00 51 1011.5
20260506082005 71 113 0.0 4.3 0.00 0.00 0.00 52 1011.5
20260506081851 71 74 0.0 4.3 0.00 0.00 0.00 52 1011.4
20260506081728 71 76 0.0 4.3 0.00 0.00 0.00 53 1011.5
20260506081654 71 123 0.0 4.3 0.00 0.00 0.00 53 1011.5
20260506081327 70 46 0.0 3.5 0.00 0.00 0.00 52 1011.5
20260506081015 70 45 0.0 3.5 0.00 0.00 0.00 53 1011.5
20260506080912 70 32 0.0 3.5 0.00 0.00 0.00 52 1011.5
20260506080501 70 28 0.0 2.6 0.00 0.00 0.00 54 1011.4
20260506080407 70 38 0.9 2.6 0.00 0.00 0.00 54 1011.5
20260506080207 70 141 0.9 6.1 0.00 0.00 0.00 54 1011.5
20260506073502 69 76 0.0 1.7 0.00 0.00 0.00 54 1011.5
20260506073411 69 65 0.0 1.7 0.00 0.00 0.00 54 1011.5
20260506073317 69 121 0.9 5.2 0.00 0.00 0.00 56 1011.5
20260506073218 69 106 0.9 6.1 0.00 0.00 0.00 56 1011.5
20260506072805 69 80 0.9 6.1 0.00 0.00 0.00 56 1011.5
20260506072608 69 111 0.9 6.1 0.00 0.00 0.00 56 1011.4
20260506072502 69 111 0.9 6.1 0.00 0.00 0.00 56 1011.5
20260506072406 69 111 0.9 6.1 0.00 0.00 0.00 55 1011.5
20260506072206 69 127 0.0 6.1 0.00 0.00 0.00 54 1011.5
20260506072007 69 115 0.0 1.7 0.00 0.00 0.00 54 1011.5
20260506071806 69 102 0.0 1.7 0.00 0.00 0.00 56 1011.4
20260506071607 69 85 0.0 1.7 0.00 0.00 0.00 56 1011.5
20260506071503 69 110 0.0 1.7 0.00 0.00 0.00 56 1011.5
20260506071407 69 93 0.0 0.9 0.00 0.00 0.00 56 1011.4
20260506071208 69 71 0.0 0.9 0.00 0.00 0.00 56 1011.4
20260506071007 69 75 0.0 2.6 0.00 0.00 0.00 56 1011.4
20260506070806 69 75 0.0 4.3 0.00 0.00 0.00 56 1011.5
20260506070607 69 74 0.0 4.3 0.00 0.00 0.00 56 1011.5
20260506070501 69 74 0.0 4.3 0.00 0.00 0.00 56 1011.5
20260506070407 69 81 0.0 4.3 0.00 0.00 0.00 56 1011.5
20260506070227 69 76 0.0 4.3 0.00 0.00 0.00 56 1011.5
20260506070123 69 129 0.0 4.3 0.00 0.00 0.00 57 1011.6
20260506062500 67 163 0.0 0.0 0.00 0.00 0.00 59 1011.6
20260506062407 67 163 0.0 0.0 0.00 0.00 0.00 59 1011.6
20260506062242 67 163 0.0 0.0 0.00 0.00 0.00 60 1011.6
20260506062148 67 163 0.0 0.0 0.00 0.00 0.00 60 1011.7
20260506062138 67 163 0.0 0.0 0.00 0.00 0.00 60 1011.7
20260506062040 67 163 0.0 0.0 0.00 0.00 0.00 60 1011.7
20260506061709 67 163 0.0 0.0 0.00 0.00 0.00 60 1011.7
20260506061207 67 163 0.0 0.0 0.00 0.00 0.00 61 1011.6
20260506061009 66 163 0.0 0.0 0.00 0.00 0.00 61 1011.7
20260506060959 66 163 0.0 0.0 0.00 0.00 0.00 61 1011.7
20260506060807 66 163 0.0 0.0 0.00 0.00 0.00 61 1011.7
20260506060607 66 163 0.0 0.0 0.00 0.00 0.00 61 1011.7
20260506060502 66 163 0.0 0.0 0.00 0.00 0.00 61 1011.6
20260506060407 66 164 0.0 0.0 0.00 0.00 0.00 61 1011.7
20260506060206 66 165 0.0 0.0 0.00 0.00 0.00 62 1011.7
20260506051406 61 155 1.7 6.1 0.00 0.00 0.00 64 1011.5
20260506051206 61 177 1.7 6.1 0.00 0.00 0.00 65 1011.6
20260506051011 61 190 1.7 6.1 0.00 0.00 0.00 65 1011.5
20260506050948 61 190 1.7 6.1 0.00 0.00 0.00 65 1011.5
20260506050819 61 190 1.7 6.1 0.00 0.00 0.00 65 1011.4
20260506050721 60 190 1.7 6.1 0.00 0.00 0.00 65 1011.4
20260506050634 60 210 1.7 6.1 0.00 0.00 0.00 65 1011.4
20260506050207 60 188 2.6 7.8 0.00 0.00 0.00 66 1011.5
20260506045006 59 184 2.6 6.1 0.00 0.00 0.00 66 1011.4
20260506044938 59 243 2.6 6.1 0.00 0.00 0.00 66 1011.4
20260506044808 59 244 3.5 6.1 0.00 0.00 0.00 66 1011.3
20260506044606 59 243 2.6 6.1 0.00 0.00 0.00 67 1011.4
20260506044436 59 215 2.6 7.0 0.00 0.00 0.00 66 1011.4
20260506044406 59 237 2.6 7.0 0.00 0.00 0.00 66 1011.4
20260506044207 59 255 2.6 7.0 0.00 0.00 0.00 67 1011.4
20260506044008 58 223 2.6 7.0 0.00 0.00 0.00 67 1011.3
20260506043936 58 243 2.6 7.0 0.00 0.00 0.00 67 1011.3
20260506043806 58 248 2.6 7.0 0.00 0.00 0.00 67 1011.4
20260506043607 58 228 3.5 7.0 0.00 0.00 0.00 67 1011.3
20260506043435 58 247 3.5 7.0 0.00 0.00 0.00 67 1011.3
20260506043406 58 250 3.5 7.0 0.00 0.00 0.00 67 1011.3
20260506043205 58 246 3.5 7.0 0.00 0.00 0.00 67 1011.4
20260506043009 58 240 3.5 7.0 0.00 0.00 0.00 67 1011.4
20260506042932 58 217 3.5 7.0 0.00 0.00 0.00 67 1011.4
20260506042807 58 220 3.5 7.0 0.00 0.00 0.00 67 1011.4
20260506042606 58 250 3.5 7.0 0.00 0.00 0.00 67 1011.4
20260506042433 58 225 3.5 7.0 0.00 0.00 0.00 67 1011.3
20260506042407 58 234 3.5 7.0 0.00 0.00 0.00 67 1011.4
20260506042206 57 233 2.6 7.0 0.00 0.00 0.00 67 1011.3
20260506042009 57 244 2.6 7.0 0.00 0.00 0.00 67 1011.3
20260506041934 57 240 2.6 7.0 0.00 0.00 0.00 67 1011.3
20260506041807 57 214 2.6 6.1 0.00 0.00 0.00 67 1011.3
20260506041608 57 234 2.6 6.1 0.00 0.00 0.00 68 1011.4
20260506041431 57 178 2.6 7.0 0.00 0.00 0.00 67 1011.3
20260506041409 57 195 3.5 7.8 0.00 0.00 0.00 67 1011.3
20260506041310 57 217 4.3 8.7 0.00 0.00 0.00 67 1011.3
20260506040932 57 223 4.3 8.7 0.00 0.00 0.00 67 1011.3
20260506040807 57 224 5.2 8.7 0.00 0.00 0.00 67 1011.2
20260506040607 57 219 5.2 8.7 0.00 0.00 0.00 67 1011.2
20260506040431 57 229 5.2 8.7 0.00 0.00 0.00 67 1011.2
20260506040407 57 239 5.2 8.7 0.00 0.00 0.00 67 1011.2
20260506040207 57 240 5.2 8.7 0.00 0.00 0.00 67 1011.2
20260506040009 57 235 5.2 8.7 0.00 0.00 0.00 67 1011.2
20260506035930 57 209 5.2 8.7 0.00 0.00 0.00 67 1011.2
20260506035806 57 264 5.2 8.7 0.00 0.00 0.00 67 1011.2
20260506035605 57 251 5.2 8.7 0.00 0.00 0.00 67 1011.2
20260506035432 57 233 5.2 8.7 0.00 0.00 0.00 67 1011.1
20260506035405 57 198 5.2 7.8 0.00 0.00 0.00 67 1011.1
20260506035222 57 205 4.3 7.8 0.00 0.00 0.00 67 1011.2
20260506035125 57 232 5.2 8.7 0.00 0.00 0.00 67 1011.1
20260506035105 57 213 5.2 8.7 0.00 0.00 0.00 67 1011.1
20260506034606 57 226 5.2 8.7 0.00 0.00 0.00 67 1011.1
20260506034503 57 198 5.2 8.7 0.00 0.00 0.00 67 1011.2
20260506034414 57 223 5.2 8.7 0.00 0.00 0.00 67 1011.1
20260506034207 57 220 4.3 8.7 0.00 0.00 0.00 67 1011.1
20260506034009 57 221 3.5 7.8 0.00 0.00 0.00 68 1011.1
20260506033931 57 223 3.5 7.8 0.00 0.00 0.00 68 1011.1
20260506033812 57 249 3.5 7.8 0.00 0.00 0.00 68 1011.1
20260506033718 56 217 3.5 7.8 0.00 0.00 0.00 68 1011.1
20260506033632 56 237 3.5 7.0 0.00 0.00 0.00 68 1011.1
20260506033207 56 211 3.5 6.1 0.00 0.00 0.00 68 1011.1
20260506033007 56 228 3.5 6.1 0.00 0.00 0.00 68 1011.1
20260506032932 56 232 3.5 6.1 0.00 0.00 0.00 68 1011.1
20260506032820 56 262 3.5 6.1 0.00 0.00 0.00 68 1011.1
20260506032726 56 261 3.5 6.1 0.00 0.00 0.00 68 1011.1
20260506032406 56 248 2.6 7.0 0.00 0.00 0.00 68 1011.1
20260506032206 56 216 2.6 7.0 0.00 0.00 0.00 68 1011.0
20260506032008 57 244 2.6 7.0 0.00 0.00 0.00 68 1011.0
20260506031930 57 252 2.6 7.0 0.00 0.00 0.00 68 1011.0
20260506031806 57 252 2.6 7.0 0.00 0.00 0.00 68 1011.0
20260506031647 57 232 1.7 7.0 0.00 0.00 0.00 68 1011.0
20260506031606 57 242 1.7 6.1 0.00 0.00 0.00 68 1010.9
20260506031550 57 218 1.7 6.1 0.00 0.00 0.00 68 1011.0
20260506031455 57 222 1.7 6.1 0.00 0.00 0.00 68 1010.9
20260506031331 57 228 1.7 6.1 0.00 0.00 0.00 67 1010.9
20260506030607 57 231 1.7 4.3 0.00 0.00 0.00 67 1010.9
20260506030430 57 213 1.7 4.3 0.00 0.00 0.00 67 1010.9
20260506030408 57 243 1.7 6.1 0.00 0.00 0.00 67 1011.0
20260506030207 57 265 2.6 6.1 0.00 0.00 0.00 67 1010.9
20260506030008 57 267 2.6 6.1 0.00 0.00 0.00 67 1011.0
20260506025930 57 223 2.6 6.1 0.00 0.00 0.00 67 1011.0
20260506025806 57 264 2.6 6.1 0.00 0.00 0.00 67 1011.0
20260506025606 57 231 2.6 6.1 0.00 0.00 0.00 67 1010.9
20260506025438 57 235 2.6 6.1 0.00 0.00 0.00 67 1010.9
20260506025419 57 241 2.6 6.1 0.00 0.00 0.00 67 1010.9
20260506025324 57 234 2.6 6.1 0.00 0.00 0.00 67 1010.9
20260506024957 57 236 2.6 6.1 0.00 0.00 0.00 67 1010.8
20260506024906 57 231 2.6 6.1 0.00 0.00 0.00 67 1010.8
20260506024525 57 230 2.6 6.1 0.00 0.00 0.00 67 1010.8
20260506024509 57 246 2.6 6.1 0.00 0.00 0.00 67 1010.9
20260506024007 57 261 2.6 7.0 0.00 0.00 0.00 67 1010.8
20260506023933 57 240 2.6 7.0 0.00 0.00 0.00 67 1010.8
20260506023808 57 242 3.5 7.0 0.00 0.00 0.00 67 1010.8
20260506023709 57 255 3.5 7.0 0.00 0.00 0.00 67 1010.7
20260506023625 57 250 3.5 7.0 0.00 0.00 0.00 67 1010.8
20260506023612 57 242 3.5 7.0 0.00 0.00 0.00 67 1010.8
20260506022922 57 219 3.5 7.0 0.00 0.00 0.00 67 1010.9
20260506022806 57 244 3.5 7.0 0.00 0.00 0.00 67 1010.9
20260506022606 57 226 3.5 7.0 0.00 0.00 0.00 67 1010.9
20260506022425 57 259 3.5 7.8 0.00 0.00 0.00 67 1010.9
20260506022411 57 247 3.5 7.8 0.00 0.00 0.00 67 1010.8
20260506022313 57 234 4.3 8.7 0.00 0.00 0.00 67 1010.9
20260506021923 57 204 4.3 8.7 0.00 0.00 0.00 67 1010.9
20260506021809 57 236 3.5 8.7 0.00 0.00 0.00 68 1010.9
20260506021716 57 258 3.5 8.7 0.00 0.00 0.00 68 1010.9
20260506021628 57 228 3.5 8.7 0.00 0.00 0.00 68 1010.9
20260506021206 57 203 3.5 7.0 0.00 0.00 0.00 68 1010.9
20260506021009 57 243 3.5 7.0 0.00 0.00 0.00 68 1010.9
20260506020924 57 242 3.5 7.0 0.00 0.00 0.00 68 1010.9
20260506020809 57 253 3.5 7.0 0.00 0.00 0.00 68 1010.9
20260506020714 57 211 3.5 7.8 0.00 0.00 0.00 68 1011.0
20260506020629 57 242 3.5 7.8 0.00 0.00 0.00 67 1010.9
20260506020208 57 246 3.5 7.8 0.00 0.00 0.00 67 1010.9
20260506020017 57 248 2.6 7.8 0.00 0.00 0.00 67 1010.9
20260506015949 57 280 2.6 7.8 0.00 0.00 0.00 67 1010.9
20260506015908 57 228 2.6 7.8 0.00 0.00 0.00 67 1010.9
20260506015423 58 241 1.7 4.3 0.00 0.00 0.00 67 1010.9
20260506015406 58 241 1.7 4.3 0.00 0.00 0.00 67 1010.8
20260506015207 58 242 1.7 4.3 0.00 0.00 0.00 66 1010.9
20260506015008 58 242 0.9 3.5 0.00 0.00 0.00 66 1011.0
20260506014921 58 242 0.9 3.5 0.00 0.00 0.00 66 1011.0
20260506014807 58 243 0.9 3.5 0.00 0.00 0.00 66 1010.9
20260506014641 58 242 0.9 3.5 0.00 0.00 0.00 66 1010.9
20260506014558 58 242 0.9 3.5 0.00 0.00 0.00 66 1011.0
20260506014545 58 242 0.9 3.5 0.00 0.00 0.00 66 1010.9
20260506014452 58 250 0.0 2.6 0.00 0.00 0.00 66 1011.0
20260506014403 58 260 0.0 2.6 0.00 0.00 0.00 66 1011.0
20260506013718 58 259 0.0 3.5 0.00 0.00 0.00 66 1010.8
20260506013406 58 259 0.0 3.5 0.00 0.00 0.00 65 1010.8
20260506013207 58 260 0.0 3.5 0.00 0.00 0.00 65 1010.8
20260506013008 59 235 0.0 3.5 0.00 0.00 0.00 65 1010.8
20260506012917 59 256 0.0 0.0 0.00 0.00 0.00 65 1010.8
20260506012809 59 256 0.0 0.0 0.00 0.00 0.00 65 1010.8
20260506012713 59 256 0.0 0.0 0.00 0.00 0.00 65 1010.8
20260506012407 59 244 0.0 1.7 0.00 0.00 0.00 65 1010.8
20260506012208 59 242 0.0 2.6 0.00 0.00 0.00 65 1010.9
20260506012012 59 230 0.9 3.5 0.00 0.00 0.00 65 1010.8
20260506011915 59 230 0.9 5.2 0.00 0.00 0.00 65 1010.8
20260506011808 59 265 1.7 5.2 0.00 0.00 0.00 65 1010.8
20260506011606 59 265 1.7 5.2 0.00 0.00 0.00 65 1010.8
20260506011420 59 210 2.6 6.1 0.00 0.00 0.00 65 1010.8
20260506011408 59 209 2.6 6.1 0.00 0.00 0.00 65 1010.9
20260506011208 58 210 2.6 6.1 0.00 0.00 0.00 65 1010.8
20260506011010 58 207 3.5 7.8 0.00 0.00 0.00 65 1010.8
20260506010942 58 210 3.5 7.8 0.00 0.00 0.00 65 1010.8
20260506010807 58 259 3.5 7.8 0.00 0.00 0.00 66 1010.8
20260506010606 58 243 4.3 7.8 0.00 0.00 0.00 66 1010.8
20260506010411 58 221 4.3 7.8 0.00 0.00 0.00 66 1010.9
20260506010310 58 223 4.3 7.8 0.00 0.00 0.00 66 1010.8
20260506005911 58 214 4.3 7.8 0.00 0.00 0.00 66 1010.7
20260506005808 58 228 4.3 7.8 0.00 0.00 0.00 66 1010.7
20260506005606 58 266 4.3 7.8 0.00 0.00 0.00 66 1010.8
20260506005422 58 219 3.5 7.8 0.00 0.00 0.00 66 1010.8
20260506005406 58 227 3.5 7.8 0.00 0.00 0.00 66 1010.8
20260506005209 58 238 3.5 7.0 0.00 0.00 0.00 66 1010.8
20260506005006 58 235 2.6 7.0 0.00 0.00 0.00 66 1010.8
20260506004910 58 251 2.6 7.0 0.00 0.00 0.00 66 1010.8
20260506004805 58 227 2.6 7.0 0.00 0.00 0.00 66 1010.8
20260506004604 58 212 2.6 7.0 0.00 0.00 0.00 66 1010.8
20260506004405 58 238 2.6 7.0 0.00 0.00 0.00 66 1010.8
20260506004304 58 207 2.6 7.0 0.00 0.00 0.00 66 1010.8
20260506004207 58 228 2.6 7.0 0.00 0.00 0.00 66 1010.8
20260506003817 58 217 2.6 7.0 0.00 0.00 0.00 66 1010.7
20260506003719 59 248 1.7 6.1 0.00 0.00 0.00 66 1010.8
20260506003632 59 232 1.7 6.1 0.00 0.00 0.00 66 1010.8
20260506003312 59 265 1.7 6.1 0.00 0.00 0.00 67 1010.8
20260506003215 59 302 0.9 6.1 0.00 0.00 0.00 67 1010.7
20260506003150 59 242 0.9 6.1 0.00 0.00 0.00 67 1010.7
20260506002418 58 221 1.7 6.1 0.00 0.00 0.00 68 1010.7
20260506002402 58 222 1.7 6.1 0.00 0.00 0.00 68 1010.7
20260506002201 58 251 1.7 7.0 0.00 0.00 0.00 68 1010.7
20260506002001 58 206 2.6 7.0 0.00 0.00 0.00 68 1010.8
20260506001913 58 206 2.6 7.0 0.00 0.00 0.00 67 1010.8
20260506001807 58 235 1.7 7.0 0.00 0.00 0.00 67 1010.8
20260506001712 58 241 1.7 7.0 0.00 0.00 0.00 67 1010.7
20260506001626 59 205 1.7 7.0 0.00 0.00 0.00 67 1010.7
20260506001202 59 243 0.9 5.2 0.00 0.00 0.00 67 1010.7
20260506001001 59 270 0.9 4.3 0.00 0.00 0.00 66 1010.7
20260506000924 59 240 0.9 4.3 0.00 0.00 0.00 66 1010.6
20260506000802 59 275 0.9 3.5 0.00 0.00 0.00 66 1010.7
20260506000559 59 277 0.9 5.2 0.00 0.00 0.00 65 1010.7
20260506000416 59 282 1.7 7.8 0.00 0.00 0.00 65 1010.7
20260506000401 59 282 1.7 7.8 0.00 0.00 0.00 65 1010.7
20260506000309 59 282 2.6 7.8 0.00 0.00 0.00 65 1010.8
20260505235910 58 283 3.5 7.8 0.00 0.00 0.00 65 1010.8
20260505235803 58 282 3.5 7.8 0.00 0.00 0.00 65 1010.8
20260505235645 58 176 3.5 7.8 0.00 0.00 0.00 65 1010.8
20260505235556 58 206 3.5 7.0 0.00 0.00 0.00 65 1010.8
20260505235547 58 217 3.5 7.0 0.00 0.00 0.00 65 1010.8
20260505235455 58 259 3.5 7.0 0.00 0.00 0.00 65 1010.8
20260505234820 58 244 2.6 7.0 0.00 0.00 0.00 66 1010.8
20260505234715 59 213 1.7 7.0 0.00 0.00 0.00 66 1010.7
20260505234401 59 215 0.9 7.0 0.00 0.00 0.00 66 1010.7
20260505234201 59 228 0.0 7.0 0.00 0.00 0.00 66 1010.7
20260505234001 58 234 0.0 0.0 0.00 0.00 0.00 67 1010.6
20260505233909 58 234 0.0 0.0 0.00 0.00 0.00 67 1010.6
20260505233759 58 234 0.0 6.1 0.00 0.00 0.00 67 1010.6
20260505233601 58 234 0.9 6.1 0.00 0.00 0.00 67 1010.6
20260505233414 58 234 0.9 6.1 0.00 0.00 0.00 67 1010.7
20260505233359 58 234 0.9 6.1 0.00 0.00 0.00 67 1010.7
20260505233203 58 234 0.9 6.1 0.00 0.00 0.00 67 1010.7
20260505233001 58 236 0.9 6.1 0.00 0.00 0.00 67 1010.8
20260505232907 58 236 0.9 6.1 0.00 0.00 0.00 67 1010.7
20260505232800 58 221 0.9 5.2 0.00 0.00 0.00 67 1010.8
20260505232559 59 236 0.0 5.2 0.00 0.00 0.00 67 1010.8
20260505232415 59 260 0.0 0.0 0.00 0.00 0.00 66 1010.7
20260505232402 59 260 0.0 0.0 0.00 0.00 0.00 66 1010.7
20260505232305 59 259 0.0 0.0 0.00 0.00 0.00 66 1010.6
20260505231907 59 253 0.0 0.0 0.00 0.00 0.00 66 1010.6
20260505231805 59 251 0.0 0.0 0.00 0.00 0.00 66 1010.6
20260505231706 59 253 0.0 0.0 0.00 0.00 0.00 66 1010.7
20260505231356 59 225 0.0 0.0 0.00 0.00 0.00 66 1010.7
20260505231244 59 222 0.0 0.0 0.00 0.00 0.00 65 1010.7
20260505231144 59 242 0.0 0.0 0.00 0.00 0.00 65 1010.7
20260505230822 59 259 0.0 0.0 0.00 0.00 0.00 65 1010.7
20260505230558 59 259 0.0 0.0 0.00 0.00 0.00 65 1010.7
20260505230412 59 259 0.0 0.0 0.00 0.00 0.00 65 1010.7
20260505230357 59 259 0.0 0.0 0.00 0.00 0.00 65 1010.7
20260505230241 59 259 0.0 0.0 0.00 0.00 0.00 65 1010.8
20260505230145 59 254 0.0 0.0 0.00 0.00 0.00 65 1010.7
20260505225757 59 254 0.0 0.0 0.00 0.00 0.00 65 1010.7
20260505225556 59 254 0.0 0.0 0.00 0.00 0.00 65 1010.7
20260505225411 59 254 0.0 0.0 0.00 0.00 0.00 65 1010.7
20260505225356 59 254 0.0 0.0 0.00 0.00 0.00 65 1010.7
20260505225212 59 254 0.0 0.0 0.00 0.00 0.00 65 1010.8
20260505225118 59 254 0.0 0.0 0.00 0.00 0.00 65 1010.8
20260505225050 59 244 0.0 0.0 0.00 0.00 0.00 65 1010.7
20260505224705 60 282 0.0 0.0 0.00 0.00 0.00 65 1010.8
20260505224358 60 269 0.0 0.0 0.00 0.00 0.00 65 1010.8
20260505224156 60 263 0.0 0.0 0.00 0.00 0.00 66 1010.8
20260505223957 61 263 0.0 0.0 0.00 0.00 0.00 66 1010.8
20260505223908 61 263 0.0 0.0 0.00 0.00 0.00 67 1010.8
20260505223816 61 261 0.0 0.0 0.00 0.00 0.00 68 1010.8
20260505223556 61 124 0.0 0.0 0.00 0.00 0.00 70 1010.8
20260505223412 61 124 0.0 0.0 0.00 0.00 0.00 71 1010.8
20260505223358 61 124 0.0 0.0 0.00 0.00 0.00 71 1010.8
20260505223157 61 124 0.0 0.0 0.00 0.00 0.00 72 1010.8
20260505223005 61 124 0.0 0.0 0.00 0.00 0.00 72 1010.8
20260505222935 61 124 0.0 0.0 0.00 0.00 0.00 72 1010.7
20260505222901 61 124 0.0 0.0 0.00 0.00 0.00 72 1010.7
20260505222415 61 134 0.0 0.0 0.00 0.00 0.00 72 1010.7
20260505222357 61 134 0.0 0.0 0.00 0.00 0.00 72 1010.7
20260505222155 62 138 0.0 0.0 0.00 0.00 0.00 72 1010.6
20260505221957 62 132 0.0 0.0 0.00 0.00 0.00 72 1010.7
20260505221908 62 121 0.0 0.0 0.00 0.00 0.00 72 1010.7
20260505221756 62 92 0.0 0.0 0.00 0.00 0.00 72 1010.7
20260505221556 62 98 0.0 0.0 0.00 0.00 0.00 72 1010.7
20260505221504 62 98 0.0 0.0 0.00 0.00 0.00 72 1010.7
20260505221454 62 98 0.0 0.0 0.00 0.00 0.00 72 1010.7
20260505220958 62 70 0.9 6.1 0.00 0.00 0.00 72 1010.7
20260505220906 62 64 1.7 7.0 0.00 0.00 0.00 71 1010.6
20260505220800 62 64 1.7 7.8 0.00 0.00 0.00 71 1010.7
20260505220557 62 56 1.7 7.8 0.00 0.00 0.00 72 1010.7
20260505220410 62 115 1.7 7.8 0.00 0.00 0.00 71 1010.6
20260505220356 62 115 1.7 7.8 0.00 0.00 0.00 71 1010.6
20260505220157 62 126 1.7 7.8 0.00 0.00 0.00 71 1010.6
20260505215959 62 130 0.9 7.8 0.00 0.00 0.00 71 1010.6
20260505215905 62 137 0.0 7.8 0.00 0.00 0.00 71 1010.6
20260505215759 62 135 0.0 6.1 0.00 0.00 0.00 71 1010.5
20260505215552 62 136 0.0 0.0 0.00 0.00 0.00 70 1010.5
20260505215409 63 136 0.0 0.0 0.00 0.00 0.00 70 1010.5
20260505215353 62 136 0.0 0.0 0.00 0.00 0.00 70 1010.5
20260505215153 63 148 0.0 0.0 0.00 0.00 0.00 70 1010.5
20260505214952 63 148 0.9 4.3 0.00 0.00 0.00 70 1010.5
20260505214907 63 159 0.9 4.3 0.00 0.00 0.00 70 1010.5
20260505214751 63 159 1.7 7.0 0.00 0.00 0.00 69 1010.5
20260505214553 63 138 1.7 7.0 0.00 0.00 0.00 68 1010.5
20260505214409 63 138 1.7 7.0 0.00 0.00 0.00 68 1010.5
20260505214353 63 138 1.7 7.0 0.00 0.00 0.00 68 1010.5
20260505214153 63 136 1.7 7.0 0.00 0.00 0.00 68 1010.5
20260505213952 64 128 0.9 7.0 0.00 0.00 0.00 67 1010.5
20260505213904 64 134 0.0 7.0 0.00 0.00 0.00 66 1010.4
20260505213751 64 149 0.0 5.2 0.00 0.00 0.00 66 1010.4
20260505213556 64 190 0.0 0.0 0.00 0.00 0.00 65 1010.4
20260505213503 64 211 0.0 0.0 0.00 0.00 0.00 64 1010.4
20260505213452 64 211 0.0 0.0 0.00 0.00 0.00 64 1010.4
20260505212952 64 211 0.0 0.0 0.00 0.00 0.00 61 1010.4
20260505212907 64 211 0.0 0.0 0.00 0.00 0.00 62 1010.4
20260505212751 64 211 0.0 0.0 0.00 0.00 0.00 61 1010.3
20260505212553 64 211 0.0 0.0 0.00 0.00 0.00 60 1010.2
20260505212411 64 216 0.0 0.0 0.00 0.00 0.00 60 1010.2
20260505212354 64 220 0.0 0.0 0.00 0.00 0.00 60 1010.2
20260505212202 64 220 0.0 2.6 0.00 0.00 0.00 60 1010.2
20260505212104 64 220 1.7 11.3 0.00 0.00 0.00 61 1010.2
20260505212032 64 220 1.7 11.3 0.00 0.00 0.00 61 1010.1
20260505212000 64 228 2.6 11.3 0.00 0.00 0.00 61 1010.2
20260505211349 64 290 4.3 11.3 0.00 0.00 0.00 62 1010.0
20260505211148 64 287 5.2 11.3 0.00 0.00 0.00 64 1010.0
20260505210945 64 236 5.2 10.4 0.00 0.00 0.00 64 1010.0
20260505210904 64 326 5.2 10.4 0.00 0.00 0.00 64 1010.0
20260505210757 64 278 5.2 10.4 0.00 0.00 0.00 64 1010.0
20260505210627 64 322 5.2 10.4 0.00 0.00 0.00 64 1010.0
20260505210537 64 343 5.2 9.6 0.00 0.00 0.00 64 1010.0
20260505210525 64 307 5.2 9.6 0.00 0.00 0.00 64 1010.0
20260505210431 65 316 5.2 10.4 0.00 0.00 0.00 65 1010.0
20260505210332 65 327 5.2 10.4 0.00 0.00 0.00 64 1009.8
20260505205702 65 308 4.3 10.4 0.00 0.00 0.00 64 1009.8
20260505205614 65 328 4.3 10.4 0.00 0.00 0.00 64 1009.8
20260505205146 65 296 3.5 10.4 0.00 0.00 0.00 64 1009.8
20260505204945 65 332 2.6 10.4 0.00 0.00 0.00 64 1009.8
20260505204907 65 324 1.7 10.4 0.00 0.00 0.00 64 1009.8
20260505204802 65 317 1.7 8.7 0.00 0.00 0.00 64 1009.8
20260505204701 65 347 1.7 8.7 0.00 0.00 0.00 63 1009.7
20260505204344 65 305 1.7 7.0 0.00 0.00 0.00 62 1009.8
20260505204141 65 7 1.7 7.0 0.00 0.00 0.00 60 1009.8
20260505203942 65 319 1.7 7.0 0.00 0.00 0.00 59 1009.7
20260505203907 65 313 1.7 7.0 0.00 0.00 0.00 60 1009.8
20260505203815 65 290 1.7 7.0 0.00 0.00 0.00 60 1009.7
20260505203725 65 296 1.7 7.0 0.00 0.00 0.00 60 1009.6
20260505203639 65 334 2.6 7.8 0.00 0.00 0.00 60 1009.6
20260505203142 65 311 2.6 7.8 0.00 0.00 0.00 60 1009.6
20260505202952 66 327 3.5 10.4 0.00 0.00 0.00 59 1009.6
20260505202923 66 292 3.5 10.4 0.00 0.00 0.00 59 1009.6
20260505202843 66 286 3.5 10.4 0.00 0.00 0.00 60 1009.6
20260505202405 66 309 4.3 10.4 0.00 0.00 0.00 59 1009.6
20260505202339 66 333 4.3 10.4 0.00 0.00 0.00 58 1009.6
20260505202203 66 309 3.5 10.4 0.00 0.00 0.00 57 1009.5
20260505202104 66 322 3.5 9.6 0.00 0.00 0.00 53 1009.5
20260505202039 67 345 3.5 9.6 0.00 0.00 0.00 53 1009.6
20260505201602 67 311 1.7 9.6 0.00 0.00 0.00 52 1009.6
20260505201513 67 346 1.7 9.6 0.00 0.00 0.00 48 1009.6
20260505201457 67 332 1.7 8.7 0.00 0.00 0.00 47 1009.6
20260505201056 68 315 0.9 5.2 0.00 0.00 0.00 46 1009.5
20260505201034 68 325 0.9 5.2 0.00 0.00 0.00 46 1009.5
20260505200633 69 312 0.9 4.3 0.00 0.00 0.00 44 1009.4
20260505200548 69 305 0.9 4.3 0.00 0.00 0.00 44 1009.4
20260505200532 69 315 0.9 3.5 0.00 0.00 0.00 44 1009.4
20260505200437 69 308 0.9 3.5 0.00 0.00 0.00 43 1009.3
20260505200049 69 337 0.9 3.5 0.00 0.00 0.00 43 1009.3
20260505195535 70 340 1.7 9.6 0.00 0.00 0.00 41 1009.3
20260505195446 70 336 1.7 9.6 0.00 0.00 0.00 41 1009.3
20260505195428 70 1 1.7 9.6 0.00 0.00 0.00 41 1009.3
20260505194936 70 308 1.7 9.6 0.00 0.00 0.00 40 1009.3
20260505194910 70 308 1.7 9.6 0.00 0.00 0.00 40 1009.2
20260505194728 70 333 1.7 9.6 0.00 0.00 0.00 41 1009.3
20260505194528 70 284 0.9 7.0 0.00 0.00 0.00 40 1009.3
20260505194406 70 298 0.9 7.0 0.00 0.00 0.00 39 1009.2
20260505194328 70 298 0.9 7.0 0.00 0.00 0.00 39 1009.2
20260505194128 70 298 0.9 7.0 0.00 0.00 0.00 39 1009.0
20260505193924 70 311 0.9 7.0 0.00 0.00 0.00 39 1009.0
20260505193906 70 307 0.9 7.0 0.00 0.00 0.00 39 1008.9
20260505193718 71 339 0.9 7.0 0.00 0.00 0.00 39 1009.0
20260505193520 71 309 0.0 3.5 0.00 0.00 0.00 38 1008.9
20260505193403 71 253 0.9 3.5 0.00 0.00 0.00 37 1008.8
20260505193320 71 253 0.9 4.3 0.00 0.00 0.00 38 1008.8
20260505193128 71 253 0.9 5.2 0.00 0.00 0.00 37 1008.7
20260505192953 71 253 1.7 5.2 0.00 0.00 0.00 36 1008.7
20260505192940 71 253 1.7 5.2 0.00 0.00 0.00 37 1008.7
20260505192848 71 253 1.7 5.2 0.00 0.00 0.00 37 1008.7
20260505192757 71 255 2.6 7.0 0.00 0.00 0.00 37 1008.8
20260505192451 71 209 3.5 7.8 0.00 0.00 0.00 37 1008.7
20260505192050 71 271 3.5 7.8 0.00 0.00 0.00 36 1008.7
20260505192043 71 269 3.5 7.8 0.00 0.00 0.00 36 1008.7
20260505191945 71 234 3.5 7.8 0.00 0.00 0.00 36 1008.6
20260505191611 71 175 3.5 7.8 0.00 0.00 0.00 36 1008.6
20260505191238 71 230 3.5 7.0 0.00 0.00 0.00 36 1008.6
20260505190918 71 196 3.5 8.7 0.00 0.00 0.00 36 1008.6
20260505190821 72 246 4.3 8.7 0.00 0.00 0.00 37 1008.5
20260505190437 72 230 4.3 8.7 0.00 0.00 0.00 36 1008.5
20260505190409 72 244 4.3 8.7 0.00 0.00 0.00 36 1008.6
20260505185911 72 222 4.3 10.4 0.00 0.00 0.00 36 1008.5
20260505185906 72 193 4.3 10.4 0.00 0.00 0.00 36 1008.5
20260505185743 72 152 4.3 10.4 0.00 0.00 0.00 36 1008.5
20260505185643 72 213 4.3 10.4 0.00 0.00 0.00 36 1008.5
20260505185308 72 179 4.3 10.4 0.00 0.00 0.00 36 1008.4
20260505185106 72 228 4.3 8.7 0.00 0.00 0.00 36 1008.5
20260505184920 72 221 4.3 8.7 0.00 0.00 0.00 36 1008.4
20260505184819 72 197 5.2 8.7 0.00 0.00 0.00 36 1008.4
20260505184729 72 199 5.2 8.7 0.00 0.00 0.00 36 1008.3
20260505184656 72 184 4.3 8.7 0.00 0.00 0.00 36 1008.4
20260505184324 72 229 3.5 8.7 0.00 0.00 0.00 36 1008.4
20260505184016 72 233 2.6 8.7 0.00 0.00 0.00 36 1008.3
20260505183506 72 244 1.7 7.8 0.00 0.00 0.00 36 1008.3
20260505183403 73 246 2.6 7.8 0.00 0.00 0.00 36 1008.3
20260505183328 73 271 2.6 11.3 0.00 0.00 0.00 36 1008.3
20260505183237 73 266 3.5 11.3 0.00 0.00 0.00 36 1008.3
20260505182927 73 201 4.3 11.3 0.00 0.00 0.00 35 1008.2
20260505182708 73 191 5.2 11.3 0.00 0.00 0.00 36 1008.1
20260505182505 73 183 6.1 11.3 0.00 0.00 0.00 35 1008.1
20260505182403 73 175 6.1 11.3 0.00 0.00 0.00 35 1008.2
20260505182306 73 192 6.1 10.4 0.00 0.00 0.00 35 1008.1
20260505182104 73 201 7.0 11.3 0.00 0.00 0.00 35 1008.1
20260505181920 73 182 7.0 11.3 0.00 0.00 0.00 35 1008.1
20260505181908 73 182 7.0 11.3 0.00 0.00 0.00 35 1008.1
20260505181718 73 225 7.8 13.0 0.00 0.00 0.00 36 1008.0
20260505181620 73 195 7.8 13.0 0.00 0.00 0.00 36 1008.1
20260505181549 73 198 7.8 13.0 0.00 0.00 0.00 36 1007.9
20260505181104 73 194 7.8 13.0 0.00 0.00 0.00 36 1007.9
20260505180907 73 188 7.0 13.0 0.00 0.00 0.00 36 1007.9
20260505180704 72 214 7.0 13.0 0.00 0.00 0.00 37 1007.8
20260505180504 72 221 6.1 13.0 0.00 0.00 0.00 37 1007.8
20260505180401 72 154 6.1 13.0 0.00 0.00 0.00 37 1007.8
20260505180305 72 167 6.1 13.0 0.00 0.00 0.00 37 1007.7
20260505175921 72 197 6.1 13.0 0.00 0.00 0.00 38 1007.8
20260505175739 72 242 6.1 12.2 0.00 0.00 0.00 38 1007.7
20260505175644 72 174 7.0 12.2 0.00 0.00 0.00 38 1007.8
20260505175305 72 212 7.0 10.4 0.00 0.00 0.00 39 1007.7
20260505175101 72 180 7.0 11.3 0.00 0.00 0.00 39 1007.8
20260505174908 72 213 7.0 11.3 0.00 0.00 0.00 39 1007.8
20260505174607 72 222 7.0 13.0 0.00 0.00 0.00 39 1007.8
20260505174544 72 181 7.0 13.0 0.00 0.00 0.00 39 1007.8
20260505174407 72 196 7.0 13.0 0.00 0.00 0.00 39 1007.7
20260505174207 72 178 7.0 13.0 0.00 0.00 0.00 39 1007.7
20260505174044 72 217 7.0 13.0 0.00 0.00 0.00 38 1007.8
20260505174014 72 194 7.0 13.0 0.00 0.00 0.00 38 1007.8
20260505173917 73 205 7.0 10.4 0.00 0.00 0.00 38 1007.8
20260505173545 73 176 7.0 10.4 0.00 0.00 0.00 38 1007.8
20260505173406 73 201 7.0 10.4 0.00 0.00 0.00 38 1008.0
20260505173204 73 207 6.1 10.4 0.00 0.00 0.00 37 1007.9
20260505173044 73 195 6.1 10.4 0.00 0.00 0.00 37 1007.9
20260505173007 73 194 6.1 10.4 0.00 0.00 0.00 37 1007.9
20260505172805 73 193 4.3 9.6 0.00 0.00 0.00 37 1008.0
20260505172605 73 146 3.5 9.6 0.00 0.00 0.00 37 1008.0
20260505172546 73 170 3.5 9.6 0.00 0.00 0.00 37 1008.0
20260505172415 74 209 3.5 9.6 0.00 0.00 0.00 38 1007.9
20260505172314 74 186 3.5 7.8 0.00 0.00 0.00 39 1008.0
20260505172239 74 235 2.6 7.8 0.00 0.00 0.00 38 1008.0
20260505171801 74 243 2.6 5.2 0.00 0.00 0.00 38 1007.8
20260505171544 75 252 1.7 5.2 0.00 0.00 0.00 38 1008.0
20260505171400 75 238 1.7 5.2 0.00 0.00 0.00 38 1007.8
20260505171202 75 209 0.9 6.1 0.00 0.00 0.00 38 1007.9
20260505171046 75 219 1.7 6.1 0.00 0.00 0.00 37 1007.8
20260505171000 75 201 1.7 6.1 0.00 0.00 0.00 38 1007.8
20260505170800 75 201 1.7 7.8 0.00 0.00 0.00 37 1007.8
20260505170605 75 220 2.6 7.8 0.00 0.00 0.00 37 1007.8
20260505170551 75 207 2.6 7.8 0.00 0.00 0.00 37 1007.8
20260505170508 75 250 2.6 7.8 0.00 0.00 0.00 37 1007.9
20260505170045 76 236 2.6 7.8 0.00 0.00 0.00 38 1007.9
20260505170001 76 215 2.6 7.8 0.00 0.00 0.00 37 1007.9
20260505165800 76 240 1.7 7.8 0.00 0.00 0.00 38 1007.9
20260505165544 76 238 1.7 7.8 0.00 0.00 0.00 38 1007.8
20260505165414 76 196 0.9 5.2 0.00 0.00 0.00 38 1007.8
20260505165315 77 242 1.7 5.2 0.00 0.00 0.00 38 1007.8
20260505165236 77 254 1.7 5.2 0.00 0.00 0.00 38 1007.9
20260505165215 77 257 2.6 5.2 0.00 0.00 0.00 38 1007.8
20260505165126 77 197 3.5 6.1 0.00 0.00 0.00 37 1007.8
20260505164505 78 180 3.5 7.0 0.00 0.00 0.00 35 1007.8
20260505164043 78 167 2.6 7.0 0.00 0.00 0.00 35 1007.8
20260505163958 78 185 1.7 7.0 0.00 0.00 0.00 35 1007.9
20260505163809 78 209 0.9 7.0 0.00 0.00 0.00 35 1007.9
20260505163703 78 203 0.9 4.3 0.00 0.00 0.00 35 1008.0
20260505163651 79 204 0.9 4.3 0.00 0.00 0.00 35 1008.0
20260505163200 79 186 0.0 2.6 0.00 0.00 0.00 34 1007.9
20260505163054 79 186 0.0 0.0 0.00 0.00 0.00 34 1007.8
20260505163022 79 186 0.0 0.0 0.00 0.00 0.00 35 1008.0
20260505162934 79 122 0.0 3.5 0.00 0.00 0.00 35 1007.9
20260505162802 79 115 0.0 3.5 0.00 0.00 0.00 35 1008.0
20260505162456 79 115 0.0 3.5 0.00 0.00 0.00 35 1007.8
20260505162041 79 134 0.0 6.1 0.00 0.00 0.00 35 1007.8
20260505161957 79 134 0.9 6.1 0.00 0.00 0.00 35 1007.9
20260505161904 79 122 1.7 7.0 0.00 0.00 0.00 35 1008.0
20260505161542 79 117 1.7 8.7 0.00 0.00 0.00 35 1008.0
20260505161355 79 119 1.7 8.7 0.00 0.00 0.00 35 1008.1
20260505161156 79 107 1.7 8.7 0.00 0.00 0.00 34 1008.1
20260505161041 80 115 2.6 8.7 0.00 0.00 0.00 34 1008.0
20260505160955 80 129 2.6 8.7 0.00 0.00 0.00 34 1008.2
20260505160753 80 115 1.7 8.7 0.00 0.00 0.00 34 1008.1
20260505160542 80 148 2.6 8.7 0.00 0.00 0.00 33 1008.1
20260505160429 80 118 2.6 8.7 0.00 0.00 0.00 33 1008.0
20260505160329 80 118 3.5 8.7 0.00 0.00 0.00 33 1008.1
20260505160250 80 119 2.6 8.7 0.00 0.00 0.00 32 1008.1
20260505160227 80 127 2.6 8.7 0.00 0.00 0.00 32 1008.0
20260505160137 81 88 2.6 8.7 0.00 0.00 0.00 31 1008.2
20260505153101 82 144 1.7 7.0 0.00 0.00 0.00 28 1008.2
20260505153008 82 94 1.7 7.0 0.00 0.00 0.00 28 1008.2
20260505152910 82 78 1.7 7.0 0.00 0.00 0.00 27 1008.2
20260505152155 82 120 2.6 7.8 0.00 0.00 0.00 27 1008.4
20260505152037 82 152 1.7 7.8 0.00 0.00 0.00 27 1008.3
20260505151953 82 117 1.7 7.8 0.00 0.00 0.00 27 1008.3
20260505151844 82 156 1.7 7.8 0.00 0.00 0.00 27 1008.3
20260505151745 83 325 1.7 7.8 0.00 0.00 0.00 27 1008.3
20260505151733 83 66 1.7 7.8 0.00 0.00 0.00 27 1008.3
20260505151334 83 97 0.9 7.0 0.00 0.00 0.00 26 1008.4
20260505151017 83 119 0.9 6.1 0.00 0.00 0.00 26 1008.4
20260505150908 83 140 0.9 6.1 0.00 0.00 0.00 26 1008.3
20260505150543 83 351 0.0 6.1 0.00 0.00 0.00 26 1008.3
20260505150455 83 122 0.0 3.5 0.00 0.00 0.00 26 1008.3
20260505140537 84 92 0.0 2.6 0.00 0.00 0.00 24 1008.7
20260505140353 85 111 0.0 2.6 0.00 0.00 0.00 24 1008.7
20260505140259 85 111 0.0 2.6 0.00 0.00 0.00 24 1008.7
20260505140228 85 111 0.0 2.6 0.00 0.00 0.00 24 1008.8